[Date Prev][Date Next][Thread Prev][Thread Next] - [Date Index][Thread Index][Author Index]
2 Line ISS Keps 7-14
- Subject: [sarex] 2 Line ISS Keps 7-14
- From: "Dave Larsen PhD" <doc@xxxxxxxxxxx>
- Date: Wed, 14 Jul 2004 04:26:58 -0700
ISS
1 25544U 98067A 04196.34019132 .00008083 00000-0 71460-4 0 2144
2 25544 51.6299 187.2330 0006139 2.9782 75.6176 15.69691036322583
----
Via the sarex mailing list at AMSAT.ORG courtesy of AMSAT-NA.
To unsubscribe, send "unsubscribe sarex" to Majordomo@amsat.org
AMSAT Home